This demonstration page uses our WeatherBlox Daily Observations layout. Learn more.

Left ArrowRight Arrow

34.74481, -87.66753

Hourly Observations for October 29, 2021

Temp ( °F °C ) Dew Point ( °F °C ) Humidity (%) Winds ( mph kmh ) Pressure ( in mb ) Visibility ( mi km ) Precip ( " mm )
12:08 am 00:08 Cloudy 55 12.8 49 9.4 80 80 WSW 15 24 29.43 997 10 16 N/A
12:53 am 00:53 Cloudy 55 12.8 48 8.9 77 77 WSW 10 17 29.42 996 10 16 N/A
1:42 am 01:42 Cloudy with Light Rain 55 12.8 49 9.4 80 80 SW 8 13 29.44 997 10 16 0.00 0.00
1:53 am 01:53 Cloudy with Light Rain 55 12.8 50 10 83 83 SSW 6 9 29.42 996 10 16 0.00 0.00
2:04 am 02:04 Cloudy 55 12.8 50 10 83 83 SSW 6 9 29.44 997 10 16 0.00 0.00
2:23 am 02:23 Cloudy with Light Rain 54 12.2 49 9.4 83 83 SW 9 15 29.43 997 6 10 0.01 0.25
2:53 am 02:53 Cloudy 54 12.2 48 8.9 80 80 SW 8 13 29.42 996 10 16 0.01 0.25
3:01 am 03:01 Cloudy 54 12.2 49 9.4 83 83 SW 9 15 29.43 997 10 16 N/A
3:19 am 03:19 Cloudy 54 12.2 49 9.4 83 83 SW 9 15 29.43 997 9 14 N/A
3:44 am 03:44 Cloudy 53 11.7 49 9.4 86 86 SW 5 7 29.43 997 8 13 N/A
3:53 am 03:53 Cloudy 54 12.2 49 9.4 83 83 SSW 7 11 29.42 996 10 16 N/A
4:01 am 04:01 Cloudy 54 12.2 49 9.4 83 83 SW 8 13 29.43 997 10 16 N/A
4:29 am 04:29 Cloudy 54 12.2 49 9.4 83 83 SSW 8 13 29.43 997 10 16 0.00 0.00
4:53 am 04:53 Cloudy 53 11.7 48 8.9 83 83 SW 10 17 29.43 997 10 16 0.00 0.00
5:50 am 05:50 Cloudy with Light Rain 52 11 48 9 88 88 SW 8 13 29.45 997 5 8 0.02 0.51
5:53 am 05:53 Cloudy with Rain 52 11.1 48 8.9 86 86 SW 9 15 29.43 997 4 6 0.02 0.51
6:00 am 06:00 Cloudy with Light Rain 52 11.1 48 8.9 86 86 SW 8 13 29.45 997 5 8 0.01 0.25
6:04 am 06:04 Cloudy with Light Rain 52 11.1 48 8.9 86 86 SW 9 15 29.45 997 7 11 0.01 0.25
6:08 am 06:08 Cloudy with Light Rain 52 11.1 48 8.9 86 86 SW 8 13 29.45 997 10 16 0.01 0.25
6:20 am 06:20 Cloudy with Light Rain 52 11.1 48 8.9 86 86 SW 7 11 29.46 997 10 16 0.02 0.51
6:38 am 06:38 Cloudy 52 11.1 48 8.9 86 86 SW 7 11 29.46 997 10 16 0.02 0.51
6:45 am 06:45 Cloudy 52 11.1 48 8.9 86 86 SW 8 13 29.46 997 10 16 0.02 0.51
6:53 am 06:53 Cloudy with Light Rain 52 11.1 48 8.9 86 86 SSW 6 9 29.44 997 10 16 0.02 0.51
7:05 am 07:05 Cloudy with Light Rain 52 11.1 48 8.9 86 86 SSW 3 6 29.46 997 10 16 0.00 0.00
7:53 am 07:53 Cloudy 52 11.1 48 8.9 86 86 SSW 6 9 29.46 998 7 11 0.00 0.00
8:08 am 08:08 Cloudy with Light Rain 52 11.1 48 8.9 86 86 SW 7 11 29.48 998 6 10 0.01 0.25
8:27 am 08:27 Cloudy with Light Rain 52 11.1 48 8.9 86 86 WSW 8 13 29.49 998 5 8 0.01 0.25
8:53 am 08:53 Cloudy 53 11.7 48 8.9 83 83 SW 8 13 29.47 998 8 13 0.01 0.25
9:01 am 09:01 Cloudy 53 11.7 48 8.9 83 83 WSW 8 13 29.48 998 9 14 N/A
9:32 am 09:32 Cloudy 53 11.7 48 8.9 83 83 SW 8 13 29.49 999 10 16 N/A
9:53 am 09:53 Cloudy 53 11.7 48 8.9 83 83 WSW 8 13 29.49 999 10 16 N/A
9:57 am 09:57 Cloudy 53 11.7 48 8.9 83 83 SW 6 9 29.50 999 10 16 N/A
10:13 am 10:13 Cloudy 54 12.2 49 9.4 83 83 WSW 7 11 29.50 999 10 16 N/A
10:22 am 10:22 Cloudy 54 12.2 48 8.9 80 80 WSW 7 11 29.50 999 10 16 N/A
10:29 am 10:29 Cloudy 54 12.2 49 9.4 83 83 WSW 9 15 29.50 999 10 16 N/A
10:53 am 10:53 Cloudy 54 12.2 48 8.9 80 80 WSW 10 17 29.50 999 10 16 N/A
11:53 am 11:53 Cloudy 55 12.8 49 9.4 80 80 W 5 7 29.51 999 10 16 N/A
12:14 pm 12:14 Cloudy 56 13.3 49 9.4 77 77 W 8 13 29.52 1000 10 16 N/A
12:53 pm 12:53 Cloudy 57 13.9 49 9.4 74 74 W 10 17 29.51 999 10 16 N/A
1:28 pm 13:28 Cloudy 58 14.4 49 9.4 72 72 WNW 10 17 29.51 999 10 16 N/A
1:53 pm 13:53 Cloudy 57 13.9 49 9.4 74 74 WNW 9 15 29.51 999 10 16 N/A
2:09 pm 14:09 Cloudy 57 13.9 50 10 78 78 W 10 17 29.52 1000 8 13 N/A
2:36 pm 14:36 Cloudy 56 13.3 50 10 81 81 WSW 7 11 29.52 1000 10 16 N/A
2:53 pm 14:53 Cloudy 57 13.9 51 10.6 81 81 WNW 5 7 29.51 999 10 16 N/A
3:36 pm 15:36 Cloudy with Light Rain 57 13.9 52 11.1 83 83 N N/A 29.53 1000 3 5 0.01 0.25
3:38 pm 15:38 Cloudy with Light Rain 57 13.9 52 11.1 83 83 N N/A 29.53 1000 3 4 0.02 0.51
3:43 pm 15:43 Cloudy with Light Rain 57 13.9 52 11.1 83 83 N N/A 29.53 1000 3 5 0.02 0.51
3:53 pm 15:53 Cloudy with Mist and Fog 56 13.3 52 11.1 87 87 N N/A 29.53 1000 5 8 0.02 0.51
4:02 pm 16:02 Cloudy with Haze 57 13.9 52 11.1 83 83 W 3 6 29.54 1000 5 8 N/A
4:14 pm 16:14 Cloudy with Light Rain 57 13.9 52 11.1 83 83 W 3 6 29.54 1000 2 3 0.00 0.00
4:23 pm 16:23 Cloudy 57 13.9 52 11.1 83 83 WSW 3 6 29.54 1000 8 13 0.00 0.00
4:38 pm 16:38 Cloudy with Rain 57 13.9 53 11.7 87 87 WSW 3 6 29.55 1001 2 3 0.03 0.76
4:53 pm 16:53 Cloudy with Heavy Rain 57 13.9 52 11.1 83 83 NW 9 15 29.54 1001 1 2 0.13 3.30
5:00 pm 17:00 Cloudy with Light Rain 57 13.9 53 11.7 87 87 WNW 10 17 29.56 1001 3 5 0.01 0.25
5:09 pm 17:09 Cloudy with Light Rain 57 13.9 53 11.7 87 87 WNW 9 15 29.56 1001 3 5 0.03 0.76
5:18 pm 17:18 Cloudy with Light Rain 57 13.9 52 11.1 83 83 WNW 10 17 29.56 1001 5 8 0.03 0.76
5:48 pm 17:48 Cloudy with Light Rain 57 14 52 11 82 82 W 10 17 29.57 1001 3 4 0.06 1.52
5:51 pm 17:51 Cloudy with Light Rain 57 14 52 11 82 82 W 9 15 29.57 1001 3 5 0.06 1.52
5:53 pm 17:53 Cloudy with Light Rain 57 13.9 52 11.1 83 83 W 10 17 29.56 1001 3 5 0.06 1.52
6:00 pm 18:00 Cloudy with Light Rain 56 13.3 52 11.1 87 87 W 10 17 29.57 1001 3 4 0.01 0.25
6:11 pm 18:11 Cloudy with Light Rain 56 13.3 52 11.1 87 87 WNW 13 20 29.58 1002 5 8 0.01 0.25
6:53 pm 18:53 Cloudy 56 13.3 52 11.1 87 87 W 12 19 29.58 1002 7 11 0.01 0.25
7:53 pm 19:53 Cloudy 56 13.3 52 11.1 87 87 W 12 19 29.60 1002 8 13 N/A
8:53 pm 20:53 Cloudy 56 13.3 52 11.1 87 87 W 12 19 29.62 1003 10 16 0.02 0.51
9:53 pm 21:53 Cloudy with Light Rain 57 13.9 53 11.7 87 87 WNW 9 15 29.63 1004 8 13 0.04 1.02
10:29 pm 22:29 Cloudy with Light Rain 57 13.9 53 11.7 87 87 WNW 8 13 29.64 1004 6 10 0.01 0.25
10:35 pm 22:35 Cloudy with Light Rain 57 13.9 53 11.7 87 87 WNW 7 11 29.64 1004 9 14 0.01 0.25
10:53 pm 22:53 Cloudy with Light Rain 57 13.9 53 11.7 87 87 WNW 9 15 29.63 1004 10 16 0.01 0.25
11:01 pm 23:01 Cloudy 57 13.9 53 11.7 87 87 WNW 9 15 29.64 1004 10 16 0.00 0.00
11:39 pm 23:39 Cloudy 57 13.9 53 11.7 87 87 WNW 10 17 29.64 1004 10 16 0.00 0.00
11:50 pm 23:50 Cloudy 57 14 54 12 88 88 WNW 8 13 29.64 1004 10 16 0.00 0.00
11:53 pm 23:53 Cloudy 57 13.9 53 11.7 87 87 WNW 9 15 29.63 1004 10 16 0.00 0.00

Powered by AerisWeather